User: anonymous   Login
Location: Brno
(49.2000°N, 16.6330°E)
Time: 10:48:20
(UTC+01:00)
Language:

Cosmos 332 Rocket - Orbit

View from above orbital plane
View from above orbital plane
View from above satellite
View from above satellite

Ground track
Ground track

The orbit data is extracted from the following two-line orbital elements,

1 04370U 70028B   17350.49470048  .00000061  00000-0  18960-4 0  9998
2 04370  74.0401 101.4992 0016298 329.4437  30.5778 14.59904434 38583
Epoch (UTC): 16 December 2017 11:52:22
Eccentricity: 0.0016298
inclination: 74.0401°
perigee height: 682 km
apogee height: 705 km
right ascension of ascending node: 101.4992°
argument of perigee: 329.4437°
revolutions per day: 14.59904434
mean anomaly at epoch: 30.5778°
orbit number at epoch: 3858

The dashed part of the orbit path shows where the satellite is in the earth's shadow,  

DLR